Location: ??????
(38.0131°N, 23.7723°E)
Time: 05:49:42
(UTC+00:00)

Cosmos 371 Rocket - Pass Details

Date: 17 October 2021
Orbit: 683 x 699 km, 74.0° (Epoch: 28 November)

Event Time Altitude Azimuth Distance (km) Brightness Sun altitude
Rises 16:43:07 0° 170° (S) 3,045 6.5 -12.3°
Reaches altitude 10° 16:45:40 10° 158° (SSE) 2,136 5.6 -12.8°
Maximum altitude 16:49:46 28° 100° (E) 1,279 4.1 -13.6°
Enters shadow 16:53:33 12° 44° (NE) 2,045 5.3 -14.4°
